Location: Borojevi?i
(45.0486°N, 16.2297°E)
Time: 16:35:19
(UTC+00:00)

Cosmos 1980 Rocket - Pass Details

Date: 08 August 2020
Orbit: 830 x 849 km, 71.0° (Epoch: 25 September)

Event Time Altitude Azimuth Distance (km) Brightness Sun altitude
Rises 18:53:37 0° 341° (NNW) 3,421 6.2 -7.4°
Reaches altitude 10° 18:56:32 10° 354° (N) 2,479 5.2 -7.8°
Maximum altitude 19:01:11 25° 49° (NE) 1,640 3.6 -8.5°
Drops below altitude 10° 19:05:47 10° 104° (ESE) 2,459 4.0 -9.2°
Enters shadow 19:05:51 10° 105° (ESE) 2,478 4.0 -9.2°
